| time (UTC) | temp F | wind direction | speed MPH | gust MPH | rain 1hr in | rain 24hr in | rain mn in | humidity % | barometer mb |
| 20260504023549 | 51 | 360 | 0.0 | 1.0 | 0.00 | 0.00 | 0.00 | 71 | 1015.8 |
| 20260504023051 | 51 | 0 | 0.0 | 1.0 | 0.00 | 0.00 | 0.00 | 69 | 1015.9 |
| 20260504022549 | 51 | 0 | 0.0 | 1.0 | 0.00 | 0.00 | 0.00 | 69 | 1015.7 |
| 20260504022050 | 51 | 360 | 0.0 | 1.0 | 0.00 | 0.00 | 0.00 | 69 | 1015.7 |
| 20260504021554 | 52 | 0 | 0.0 | 1.0 | 0.00 | 0.00 | 0.00 | 70 | 1015.6 |
| 20260504021048 | 52 | 0 | 0.0 | 2.0 | 0.00 | 0.00 | 0.00 | 68 | 1015.5 |
| 20260504020547 | 52 | 360 | 0.0 | 2.0 | 0.00 | 0.00 | 0.00 | 67 | 1015.4 |
| 20260504020100 | 52 | 360 | 0.0 | 2.0 | 0.00 | 0.00 | 0.00 | 66 | 1015.5 |
| 20260504015548 | 53 | 360 | 0.0 | 2.0 | 0.00 | 0.00 | 0.00 | 67 | 1015.5 |
| 20260504015047 | 53 | 360 | 1.0 | 3.0 | 0.00 | 0.00 | 0.00 | 65 | 1015.5 |
| 20260504014613 | 53 | 360 | 1.0 | 3.0 | 0.00 | 0.00 | 0.00 | 63 | 1015.4 |
| 20260504014048 | 54 | 360 | 2.0 | 3.0 | 0.00 | 0.00 | 0.00 | 63 | 1015.4 |
| 20260504013552 | 55 | 360 | 0.0 | 2.0 | 0.00 | 0.00 | 0.00 | 61 | 1015.5 |
| 20260504013059 | 55 | 0 | 0.0 | 1.0 | 0.00 | 0.00 | 0.00 | 57 | 1015.6 |
| 20260504012549 | 56 | 0 | 0.0 | 1.0 | 0.00 | 0.00 | 0.00 | 57 | 1015.6 |
| 20260504012049 | 56 | 0 | 0.0 | 1.0 | 0.00 | 0.00 | 0.00 | 57 | 1015.6 |
| 20260504011559 | 57 | 0 | 0.0 | 1.0 | 0.00 | 0.00 | 0.00 | 57 | 1015.5 |
| 20260504011047 | 57 | 0 | 0.0 | 1.0 | 0.00 | 0.00 | 0.00 | 55 | 1015.4 |
| 20260504010549 | 57 | 0 | 0.0 | 1.0 | 0.00 | 0.00 | 0.00 | 54 | 1015.4 |
| 20260504010059 | 58 | 0 | 0.0 | 2.0 | 0.00 | 0.00 | 0.00 | 53 | 1015.4 |
| 20260504005549 | 58 | 0 | 0.0 | 2.0 | 0.00 | 0.00 | 0.00 | 52 | 1015.4 |
| 20260504005047 | 58 | 360 | 0.0 | 2.0 | 0.00 | 0.00 | 0.00 | 50 | 1015.3 |
| 20260504004553 | 59 | 0 | 0.0 | 1.0 | 0.00 | 0.00 | 0.00 | 50 | 1015.3 |
| 20260504004047 | 59 | 0 | 0.0 | 1.0 | 0.00 | 0.00 | 0.00 | 49 | 1015.3 |
| 20260504003548 | 59 | 0 | 0.0 | 2.0 | 0.00 | 0.00 | 0.00 | 49 | 1015.2 |
| 20260504003059 | 60 | 0 | 0.0 | 2.0 | 0.00 | 0.00 | 0.00 | 48 | 1015.2 |
| 20260504002546 | 60 | 0 | 0.0 | 2.0 | 0.00 | 0.00 | 0.00 | 48 | 1015.2 |
| 20260504002046 | 60 | 360 | 0.0 | 2.0 | 0.00 | 0.00 | 0.00 | 48 | 1015.2 |
| 20260504001551 | 61 | 0 | 0.0 | 2.0 | 0.00 | 0.00 | 0.00 | 47 | 1015.4 |
| 20260504001048 | 61 | 0 | 0.0 | 2.0 | 0.00 | 0.00 | 0.00 | 47 | 1015.4 |
| 20260504000547 | 62 | 0 | 0.0 | 3.0 | 0.00 | 0.00 | 0.00 | 46 | 1015.4 |
| 20260504000053 | 62 | 0 | 0.0 | 3.0 | 0.00 | 0.00 | 0.00 | 46 | 1015.3 |
| 20260503235547 | 62 | 360 | 0.0 | 3.0 | 0.00 | 0.00 | 0.00 | 45 | 1015.4 |
| 20260503235047 | 63 | 0 | 0.0 | 3.0 | 0.00 | 0.00 | 0.00 | 45 | 1015.4 |
| 20260503234554 | 63 | 0 | 0.0 | 3.0 | 0.00 | 0.00 | 0.00 | 44 | 1015.5 |
| 20260503234049 | 63 | 0 | 0.0 | 3.0 | 0.00 | 0.00 | 0.00 | 43 | 1015.5 |
| 20260503233549 | 63 | 360 | 1.0 | 5.0 | 0.00 | 0.00 | 0.00 | 43 | 1015.6 |
| 20260503233053 | 64 | 0 | 0.0 | 5.0 | 0.00 | 0.00 | 0.00 | 42 | 1015.6 |
| 20260503232550 | 64 | 360 | 1.0 | 5.0 | 0.00 | 0.00 | 0.00 | 42 | 1015.6 |
| 20260503232049 | 64 | 360 | 1.0 | 5.0 | 0.00 | 0.00 | 0.00 | 42 | 1015.7 |
| 20260503231551 | 64 | 360 | 0.0 | 5.0 | 0.00 | 0.00 | 0.00 | 41 | 1015.8 |
| 20260503231047 | 64 | 0 | 1.0 | 5.0 | 0.00 | 0.00 | 0.00 | 41 | 1015.8 |
| 20260503230548 | 64 | 0 | 1.0 | 6.0 | 0.00 | 0.00 | 0.00 | 41 | 1015.9 |
| 20260503230051 | 64 | 360 | 0.0 | 6.0 | 0.00 | 0.00 | 0.00 | 42 | 1015.9 |
| 20260503225547 | 64 | 360 | 2.0 | 6.0 | 0.00 | 0.00 | 0.00 | 40 | 1016.0 |
| 20260503225047 | 65 | 360 | 1.0 | 4.0 | 0.00 | 0.00 | 0.00 | 40 | 1016.0 |
| 20260503224551 | 65 | 360 | 1.0 | 6.0 | 0.00 | 0.00 | 0.00 | 39 | 1016.0 |
| 20260503224050 | 65 | 360 | 2.0 | 8.0 | 0.00 | 0.00 | 0.00 | 41 | 1016.0 |
| 20260503223549 | 65 | 360 | 1.0 | 8.0 | 0.00 | 0.00 | 0.00 | 41 | 1016.0 |
| 20260503223052 | 65 | 360 | 2.0 | 10.0 | 0.00 | 0.00 | 0.00 | 41 | 1016.1 |
| 20260503222549 | 65 | 360 | 3.0 | 10.0 | 0.00 | 0.00 | 0.00 | 40 | 1016.1 |
| 20260503222048 | 65 | 360 | 2.0 | 9.0 | 0.00 | 0.00 | 0.00 | 43 | 1016.1 |
| 20260503221556 | 65 | 0 | 1.0 | 8.0 | 0.00 | 0.00 | 0.00 | 41 | 1016.2 |
| 20260503221050 | 65 | 360 | 1.0 | 11.0 | 0.00 | 0.00 | 0.00 | 40 | 1016.2 |
| 20260503220548 | 65 | 360 | 2.0 | 11.0 | 0.00 | 0.00 | 0.00 | 41 | 1016.3 |
| 20260503215546 | 65 | 360 | 2.0 | 9.0 | 0.00 | 0.00 | 0.00 | 42 | 1016.4 |
| 20260503215051 | 65 | 360 | 3.0 | 8.0 | 0.00 | 0.00 | 0.00 | 42 | 1016.4 |
| 20260503214555 | 65 | 360 | 4.0 | 8.0 | 0.00 | 0.00 | 0.00 | 39 | 1016.4 |
| 20260503214046 | 65 | 360 | 3.0 | 8.0 | 0.00 | 0.00 | 0.00 | 42 | 1016.4 |
| 20260503213549 | 65 | 360 | 3.0 | 8.0 | 0.00 | 0.00 | 0.00 | 40 | 1016.4 |
| 20260503213107 | 65 | 229 | 1.0 | 8.0 | 0.00 | 0.00 | 0.00 | 45 | 1016.5 |
| 20260503212546 | 65 | 242 | 3.0 | 9.0 | 0.00 | 0.00 | 0.00 | 43 | 1016.4 |
| 20260503212049 | 65 | 273 | 4.0 | 9.0 | 0.00 | 0.00 | 0.00 | 41 | 1016.5 |
| 20260503211554 | 65 | 205 | 3.0 | 9.0 | 0.00 | 0.00 | 0.00 | 42 | 1016.6 |
| 20260503211048 | 65 | 250 | 4.0 | 10.0 | 0.00 | 0.00 | 0.00 | 42 | 1016.6 |
| 20260503210548 | 65 | 276 | 5.0 | 10.0 | 0.00 | 0.00 | 0.00 | 42 | 1016.6 |
| 20260503205549 | 65 | 226 | 4.0 | 12.0 | 0.00 | 0.00 | 0.00 | 41 | 1016.7 |
| 20260503205047 | 65 | 229 | 3.0 | 13.0 | 0.00 | 0.00 | 0.00 | 44 | 1016.7 |
| 20260503204556 | 65 | 0 | 3.0 | 13.0 | 0.00 | 0.00 | 0.00 | 43 | 1016.8 |
| 20260503204050 | 65 | 259 | 3.0 | 10.0 | 0.00 | 0.00 | 0.00 | 44 | 1016.8 |
| 20260503203547 | 65 | 287 | 3.0 | 14.0 | 0.00 | 0.00 | 0.00 | 42 | 1017.0 |
| 20260503203056 | 64 | 243 | 5.0 | 14.0 | 0.00 | 0.00 | 0.00 | 44 | 1017.1 |
| 20260503202548 | 65 | 223 | 5.0 | 12.0 | 0.00 | 0.00 | 0.00 | 41 | 1017.2 |
| 20260503202047 | 65 | 259 | 5.0 | 12.0 | 0.00 | 0.00 | 0.00 | 41 | 1017.3 |
| 20260503201554 | 65 | 296 | 6.0 | 12.0 | 0.00 | 0.00 | 0.00 | 43 | 1017.3 |
| 20260503201048 | 65 | 345 | 1.0 | 15.0 | 0.00 | 0.00 | 0.00 | 45 | 1017.3 |
| 20260503200552 | 65 | 316 | 5.0 | 15.0 | 0.00 | 0.00 | 0.00 | 40 | 1017.5 |
| 20260503200057 | 66 | 297 | 9.0 | 15.0 | 0.00 | 0.00 | 0.00 | 41 | 1017.6 |
| 20260503195548 | 66 | 292 | 3.0 | 11.0 | 0.00 | 0.00 | 0.00 | 41 | 1017.6 |
| 20260503195046 | 67 | 176 | 1.0 | 10.0 | 0.00 | 0.00 | 0.00 | 43 | 1017.7 |
| 20260503194556 | 67 | 277 | 2.0 | 14.0 | 0.00 | 0.00 | 0.00 | 40 | 1017.6 |
| 20260503194049 | 67 | 263 | 7.0 | 14.0 | 0.00 | 0.00 | 0.00 | 40 | 1017.8 |
| 20260503193549 | 67 | 257 | 3.0 | 10.0 | 0.00 | 0.00 | 0.00 | 40 | 1017.9 |
| 20260503193109 | 67 | 284 | 1.0 | 9.0 | 0.00 | 0.00 | 0.00 | 40 | 1018.0 |
| 20260503192550 | 66 | 268 | 2.0 | 9.0 | 0.00 | 0.00 | 0.00 | 40 | 1018.1 |
| 20260503192048 | 67 | 296 | 3.0 | 11.0 | 0.00 | 0.00 | 0.00 | 39 | 1018.1 |
| 20260503191557 | 69 | 297 | 5.0 | 11.0 | 0.00 | 0.00 | 0.00 | 37 | 1018.2 |
| 20260503191045 | 70 | 348 | 1.0 | 7.0 | 0.00 | 0.00 | 0.00 | 33 | 1018.2 |
| 20260503190546 | 70 | 60 | 2.0 | 10.0 | 0.00 | 0.00 | 0.00 | 36 | 1018.3 |
| 20260503190055 | 70 | 266 | 2.0 | 10.0 | 0.00 | 0.00 | 0.00 | 38 | 1018.4 |
| 20260503185546 | 70 | 238 | 3.0 | 10.0 | 0.00 | 0.00 | 0.00 | 38 | 1018.3 |
| 20260503185051 | 68 | 76 | 4.0 | 8.0 | 0.00 | 0.00 | 0.00 | 38 | 1018.4 |
| 20260503184608 | 67 | 145 | 1.0 | 8.0 | 0.00 | 0.00 | 0.00 | 42 | 1018.4 |
| 20260503184047 | 67 | 343 | 2.0 | 14.0 | 0.00 | 0.00 | 0.00 | 37 | 1018.5 |
| 20260503183545 | 69 | 234 | 5.0 | 14.0 | 0.00 | 0.00 | 0.00 | 35 | 1018.6 |
| 20260503183106 | 70 | 266 | 4.0 | 14.0 | 0.00 | 0.00 | 0.00 | 36 | 1018.6 |
| 20260503182545 | 70 | 211 | 2.0 | 8.0 | 0.00 | 0.00 | 0.00 | 38 | 1018.7 |
| 20260503182048 | 70 | 0 | 2.0 | 9.0 | 0.00 | 0.00 | 0.00 | 31 | 1018.7 |
| 20260503181607 | 68 | 158 | 1.0 | 9.0 | 0.00 | 0.00 | 0.00 | 41 | 1018.9 |
| 20260503181046 | 67 | 246 | 1.0 | 6.0 | 0.00 | 0.00 | 0.00 | 42 | 1019.0 |
| 20260503180546 | 66 | 0 | 2.0 | 7.0 | 0.00 | 0.00 | 0.00 | 40 | 1018.9 |
| 20260503180056 | 66 | 0 | 4.0 | 8.0 | 0.00 | 0.00 | 0.00 | 38 | 1019.0 |
| 20260503175549 | 66 | 308 | 2.0 | 11.0 | 0.00 | 0.00 | 0.00 | 38 | 1019.1 |
| 20260503175047 | 68 | 331 | 3.0 | 11.0 | 0.00 | 0.00 | 0.00 | 38 | 1019.1 |
| 20260503174556 | 68 | 248 | 3.0 | 10.0 | 0.00 | 0.00 | 0.00 | 39 | 1019.3 |
| 20260503174047 | 67 | 200 | 2.0 | 8.0 | 0.00 | 0.00 | 0.00 | 41 | 1019.3 |
| 20260503173547 | 66 | 164 | 1.0 | 7.0 | 0.00 | 0.00 | 0.00 | 40 | 1019.4 |
| 20260503173100 | 66 | 257 | 3.0 | 7.0 | 0.00 | 0.00 | 0.00 | 41 | 1019.5 |
| 20260503172548 | 66 | 306 | 1.0 | 6.0 | 0.00 | 0.00 | 0.00 | 40 | 1019.4 |
| 20260503172046 | 66 | 279 | 2.0 | 5.0 | 0.00 | 0.00 | 0.00 | 41 | 1019.5 |
| 20260503171548 | 66 | 313 | 1.0 | 9.0 | 0.00 | 0.00 | 0.00 | 41 | 1019.7 |
| 20260503171047 | 66 | 271 | 3.0 | 9.0 | 0.00 | 0.00 | 0.00 | 42 | 1019.8 |
| 20260503170547 | 65 | 180 | 0.0 | 10.0 | 0.00 | 0.00 | 0.00 | 44 | 1019.9 |
| 20260503150545 | 58 | 69 | 1.0 | 3.0 | 0.00 | 0.00 | 0.00 | 47 | 1020.7 |
| 20260503131046 | 48 | 326 | 0.0 | 3.0 | 0.00 | 0.00 | 0.00 | 76 | 1020.6 |
| 20260503130547 | 47 | 111 | 0.0 | 2.0 | 0.00 | 0.00 | 0.00 | 80 | 1020.6 |
| 20260503110547 | 39 | 0 | 0.0 | 0.0 | 0.00 | 0.00 | 0.00 | 92 | 1019.3 |
| 20260503081622 | 46 | 0 | 0.0 | 2.0 | 0.00 | 0.00 | 0.00 | 80 | 1018.0 |
| 20260503081049 | 47 | 0 | 0.0 | 1.0 | 0.00 | 0.00 | 0.00 | 79 | 1017.9 |
| 20260503080549 | 47 | 0 | 0.0 | 1.0 | 0.00 | 0.00 | 0.00 | 79 | 1017.9 |
| 20260503080112 | 47 | 0 | 0.0 | 1.0 | 0.00 | 0.00 | 0.00 | 78 | 1017.8 |
| 20260503072547 | 49 | 0 | 0.0 | 0.0 | 0.00 | 0.00 | 0.00 | 76 | 1017.4 |
| 20260503072047 | 49 | 0 | 0.0 | 0.0 | 0.00 | 0.00 | 0.00 | 76 | 1017.4 |
| 20260503071556 | 49 | 0 | 0.0 | 0.0 | 0.00 | 0.00 | 0.00 | 75 | 1017.4 |
| 20260503071047 | 49 | 0 | 0.0 | 0.0 | 0.00 | 0.00 | 0.00 | 75 | 1017.5 |
| 20260503070549 | 49 | 0 | 0.0 | 0.0 | 0.00 | 0.00 | 0.00 | 75 | 1017.4 |
| 20260503055049 | 50 | 0 | 0.0 | 1.0 | 0.00 | 0.00 | 0.00 | 78 | 1017.3 |
| 20260503054555 | 50 | 0 | 0.0 | 1.0 | 0.00 | 0.00 | 0.00 | 78 | 1017.2 |
| 20260503054047 | 50 | 0 | 0.0 | 1.0 | 0.00 | 0.00 | 0.00 | 77 | 1017.2 |
| 20260503053547 | 50 | 0 | 0.0 | 1.0 | 0.00 | 0.00 | 0.00 | 77 | 1017.2 |
| 20260503053053 | 50 | 0 | 0.0 | 1.0 | 0.00 | 0.00 | 0.00 | 76 | 1017.2 |
| 20260503052547 | 50 | 0 | 0.0 | 0.0 | 0.00 | 0.00 | 0.00 | 77 | 1017.2 |
| 20260503052046 | 50 | 0 | 0.0 | 0.0 | 0.00 | 0.00 | 0.00 | 74 | 1017.2 |
| 20260503051557 | 50 | 0 | 0.0 | 1.0 | 0.00 | 0.00 | 0.00 | 75 | 1017.2 |
| 20260503051047 | 50 | 0 | 0.0 | 1.0 | 0.00 | 0.00 | 0.00 | 74 | 1017.1 |
| 20260503050547 | 50 | 360 | 0.0 | 0.0 | 0.00 | 0.00 | 0.00 | 74 | 1017.1 |
| 20260503050057 | 50 | 0 | 0.0 | 1.0 | 0.00 | 0.00 | 0.00 | 75 | 1017.1 |
| 20260503045547 | 50 | 0 | 0.0 | 1.0 | 0.00 | 0.00 | 0.00 | 74 | 1017.0 |
| 20260503045046 | 50 | 0 | 0.0 | 1.0 | 0.00 | 0.00 | 0.00 | 74 | 1017.1 |
| 20260503044554 | 50 | 0 | 0.0 | 1.0 | 0.00 | 0.00 | 0.00 | 72 | 1017.1 |
| 20260503044046 | 51 | 0 | 0.0 | 1.0 | 0.00 | 0.00 | 0.00 | 73 | 1017.2 |
| 20260503043549 | 51 | 0 | 0.0 | 1.0 | 0.00 | 0.00 | 0.00 | 73 | 1017.0 |
| 20260503043059 | 51 | 0 | 0.0 | 1.0 | 0.00 | 0.00 | 0.00 | 73 | 1017.1 |
| 20260503042549 | 51 | 0 | 0.0 | 1.0 | 0.00 | 0.00 | 0.00 | 73 | 1017.0 |
| 20260503042051 | 51 | 0 | 0.0 | 1.0 | 0.00 | 0.00 | 0.00 | 72 | 1017.1 |
| 20260503041554 | 51 | 0 | 0.0 | 1.0 | 0.00 | 0.00 | 0.00 | 72 | 1017.1 |
| 20260503041050 | 51 | 0 | 0.0 | 1.0 | 0.00 | 0.00 | 0.00 | 73 | 1016.9 |
| 20260503040546 | 51 | 0 | 0.0 | 1.0 | 0.00 | 0.00 | 0.00 | 71 | 1017.0 |
| 20260503040059 | 51 | 0 | 0.0 | 1.0 | 0.00 | 0.00 | 0.00 | 70 | 1016.9 |
| 20260503035549 | 51 | 0 | 0.0 | 1.0 | 0.00 | 0.00 | 0.00 | 68 | 1016.9 |
| 20260503035048 | 51 | 0 | 0.0 | 1.0 | 0.00 | 0.00 | 0.00 | 67 | 1016.9 |
| 20260503034555 | 52 | 0 | 0.0 | 1.0 | 0.00 | 0.00 | 0.00 | 67 | 1016.9 |
| 20260503034046 | 52 | 0 | 0.0 | 1.0 | 0.00 | 0.00 | 0.00 | 67 | 1016.9 |
| 20260503033546 | 52 | 0 | 0.0 | 1.0 | 0.00 | 0.00 | 0.00 | 65 | 1016.8 |
| 20260503033120 | 52 | 0 | 0.0 | 1.0 | 0.00 | 0.00 | 0.00 | 63 | 1016.7 |
| 20260503032547 | 52 | 0 | 0.0 | 1.0 | 0.00 | 0.00 | 0.00 | 65 | 1016.7 |
| 20260503032050 | 52 | 0 | 0.0 | 1.0 | 0.00 | 0.00 | 0.00 | 63 | 1016.8 |
| 20260503031556 | 52 | 0 | 0.0 | 1.0 | 0.00 | 0.00 | 0.00 | 64 | 1016.7 |
| 20260503031046 | 52 | 0 | 0.0 | 1.0 | 0.00 | 0.00 | 0.00 | 64 | 1016.6 |
| 20260503030548 | 52 | 0 | 0.0 | 1.0 | 0.00 | 0.00 | 0.00 | 63 | 1016.5 |
| 20260503030104 | 52 | 0 | 0.0 | 1.0 | 0.00 | 0.00 | 0.00 | 63 | 1016.6 |
| 20260503025545 | 52 | 0 | 0.0 | 1.0 | 0.00 | 0.00 | 0.00 | 63 | 1016.5 |
| 20260503025045 | 52 | 0 | 0.0 | 0.0 | 0.00 | 0.00 | 0.00 | 64 | 1016.4 |
| 20260503024621 | 52 | 0 | 0.0 | 1.0 | 0.00 | 0.00 | 0.00 | 63 | 1016.4 |